RXI1 OEJN-OERK

Flight info

Callsign RXI1
Flight time 1h 20m
Altitude 31000
Route OEJN/34C EGRE2W EGREP T532 ORDEM ORDE1A OERK/15L
Aircraft A35K/H-SDE2E3GHIJ3J4J5LM1ORWXY/LB1D1

Departure

Time 2026-05-05 13:59
Airport King Abdulaziz International Airport (OEJN)

Arrival

Time 2026-05-05 15:19
Airport King Khalid International Airport (OERK)
Time Latitude Longitude Altitude Speed Heading
2026-05-05 13:36 21.67166 39.16983 39 ft 0 kts 157°
2026-05-05 13:48 21.67173 39.16980 38 ft 4 kts 147°
2026-05-05 13:48 21.67195 39.16965 36 ft 4 kts 152°
2026-05-05 13:49 21.67218 39.16951 36 ft 4 kts 152°
2026-05-05 13:49 21.67239 39.16940 36 ft 4 kts 182°
2026-05-05 13:49 21.67254 39.16951 34 ft 4 kts 252°
2026-05-05 13:49 21.67260 39.16974 35 ft 3 kts 245°
2026-05-05 13:52 21.67249 39.16949 35 ft 9 kts 244°
2026-05-05 13:52 21.67222 39.16870 38 ft 12 kts 258°
2026-05-05 13:52 21.67229 39.16794 38 ft 7 kts 314°
2026-05-05 13:52 21.67265 39.16782 38 ft 6 kts 348°
2026-05-05 13:53 21.67328 39.16771 38 ft 10 kts 351°
2026-05-05 13:53 21.67400 39.16753 37 ft 11 kts 343°
2026-05-05 13:53 21.67472 39.16726 37 ft 11 kts 339°
2026-05-05 13:53 21.67553 39.16692 37 ft 13 kts 339°
2026-05-05 13:54 21.67639 39.16648 36 ft 13 kts 312°
2026-05-05 13:54 21.67638 39.16564 36 ft 11 kts 249°
2026-05-05 13:54 21.67600 39.16455 36 ft 18 kts 250°
2026-05-05 13:54 21.67560 39.16328 36 ft 18 kts 249°
2026-05-05 13:55 21.67487 39.16257 36 ft 12 kts 188°
2026-05-05 13:55 21.67384 39.16287 37 ft 22 kts 159°
2026-05-05 13:55 21.67191 39.16364 38 ft 36 kts 160°
2026-05-05 13:55 21.66940 39.16463 39 ft 39 kts 160°
2026-05-05 13:56 21.66684 39.16564 40 ft 39 kts 160°
2026-05-05 13:56 21.66428 39.16664 41 ft 39 kts 160°
2026-05-05 13:56 21.66223 39.16713 42 ft 16 kts 212°
2026-05-05 13:56 21.66175 39.16600 41 ft 20 kts 251°
2026-05-05 13:57 21.66179 39.16461 39 ft 16 kts 321°
2026-05-05 13:57 21.66262 39.16429 39 ft 0 kts 341°
2026-05-05 13:58 21.66369 39.16387 40 ft 45 kts 339°
2026-05-05 13:58 21.66853 39.16199 41 ft 101 kts 340°
2026-05-05 13:59 21.68634 39.15495 677 ft 139 kts 337°
2026-05-05 13:59 21.69534 39.15109 1228 ft 140 kts 338°
2026-05-05 14:00 21.71386 39.14316 1783 ft 154 kts 342°
2026-05-05 14:00 21.72083 39.14064 1852 ft 165 kts 342°
2026-05-05 14:00 21.73629 39.13495 2057 ft 187 kts 342°
2026-05-05 14:00 21.74902 39.13009 2291 ft 201 kts 340°
2026-05-05 14:01 21.76227 39.12491 2664 ft 208 kts 340°
2026-05-05 14:01 21.77588 39.11957 3146 ft 210 kts 340°
2026-05-05 14:01 21.78980 39.11410 3614 ft 214 kts 340°
2026-05-05 14:01 21.80439 39.11092 4082 ft 216 kts 356°
2026-05-05 14:02 21.81919 39.11373 4560 ft 219 kts 22°
2026-05-05 14:02 21.83158 39.12328 5022 ft 221 kts 40°
2026-05-05 14:02 21.84242 39.13494 5481 ft 220 kts 42°
2026-05-05 14:02 21.85294 39.14682 5915 ft 220 kts 43°
2026-05-05 14:03 21.86345 39.15869 6373 ft 219 kts 43°
2026-05-05 14:03 21.87409 39.17069 6710 ft 222 kts 43°
2026-05-05 14:03 21.88487 39.18278 7063 ft 224 kts 43°
2026-05-05 14:03 21.89574 39.19490 7430 ft 225 kts 44°
2026-05-05 14:04 21.90667 39.20712 7768 ft 230 kts 44°
2026-05-05 14:04 21.91766 39.21942 8100 ft 232 kts 44°
2026-05-05 14:04 21.92902 39.23211 8517 ft 233 kts 44°
2026-05-05 14:04 21.94010 39.24452 8894 ft 235 kts 45°
2026-05-05 14:05 21.95161 39.25744 9187 ft 241 kts 45°
2026-05-05 14:05 21.96338 39.27061 9522 ft 245 kts 45°
2026-05-05 14:05 21.97526 39.28388 9912 ft 246 kts 45°
2026-05-05 14:05 21.98723 39.29727 10231 ft 252 kts 45°
2026-05-05 14:06 21.99954 39.31104 10499 ft 258 kts 45°
2026-05-05 14:06 22.01224 39.32524 10718 ft 268 kts 45°
2026-05-05 14:06 22.02549 39.34006 10920 ft 281 kts 45°
2026-05-05 14:06 22.03918 39.35538 11080 ft 294 kts 45°
2026-05-05 14:07 22.05368 39.37160 11286 ft 306 kts 45°
2026-05-05 14:07 22.06879 39.38852 11522 ft 319 kts 45°
2026-05-05 14:07 22.08450 39.40611 11716 ft 332 kts 45°
2026-05-05 14:07 22.10083 39.42442 11942 ft 345 kts 46°
2026-05-05 14:08 22.11775 39.44338 12144 ft 357 kts 46°
2026-05-05 14:08 22.13533 39.46309 12367 ft 369 kts 46°
2026-05-05 14:08 22.15339 39.48335 12592 ft 380 kts 46°
2026-05-05 14:08 22.16565 39.49711 12712 ft 388 kts 46°
2026-05-05 14:09 22.18461 39.51840 12911 ft 398 kts 46°
2026-05-05 14:09 22.21046 39.54742 13150 ft 411 kts 46°
2026-05-05 14:09 22.23044 39.56988 13333 ft 420 kts 46°
2026-05-05 14:09 22.24421 39.58536 13457 ft 425 kts 46°
2026-05-05 14:10 22.26461 39.60831 13706 ft 431 kts 46°
2026-05-05 14:10 22.28543 39.63175 14049 ft 433 kts 46°
2026-05-05 14:10 22.30638 39.65535 14376 ft 437 kts 46°
2026-05-05 14:10 22.32747 39.67912 14725 ft 439 kts 46°
2026-05-05 14:11 22.34859 39.70295 15074 ft 441 kts 46°
2026-05-05 14:11 22.36990 39.72698 15422 ft 443 kts 46°
2026-05-05 14:11 22.39124 39.75108 15874 ft 441 kts 46°
2026-05-05 14:11 22.41229 39.77486 16640 ft 432 kts 46°
2026-05-05 14:12 22.43277 39.79803 17470 ft 422 kts 46°
2026-05-05 14:12 22.45231 39.82014 18262 ft 413 kts 46°
2026-05-05 14:12 22.47243 39.84289 19012 ft 402 kts 46°
2026-05-05 14:12 22.49241 39.86363 19764 ft 392 kts 42°
2026-05-05 14:13 22.51257 39.88279 20549 ft 380 kts 39°
2026-05-05 14:13 22.53218 39.90073 21329 ft 368 kts 39°
2026-05-05 14:13 22.55140 39.91824 22136 ft 354 kts 39°
2026-05-05 14:13 22.57000 39.93538 22646 ft 352 kts 39°
2026-05-05 14:14 22.58867 39.95279 22824 ft 358 kts 39°
2026-05-05 14:14 22.60767 39.97069 22943 ft 366 kts 39°
2026-05-05 14:14 22.62698 39.98904 23104 ft 373 kts 40°
2026-05-05 14:14 22.64670 40.00787 23259 ft 380 kts 40°
2026-05-05 14:15 22.66672 40.02704 23410 ft 387 kts 40°
2026-05-05 14:15 22.68708 40.04654 23556 ft 394 kts 40°
2026-05-05 14:15 22.70779 40.06638 23677 ft 401 kts 40°
2026-05-05 14:15 22.72862 40.08633 23802 ft 408 kts 40°
2026-05-05 14:16 22.75006 40.10687 23918 ft 415 kts 40°
2026-05-05 14:16 22.77198 40.12786 24032 ft 422 kts 40°
2026-05-05 14:16 22.79414 40.14910 24167 ft 429 kts 40°
2026-05-05 14:16 22.81666 40.17069 24269 ft 435 kts 40°
2026-05-05 14:17 22.83954 40.19263 24394 ft 441 kts 40°
2026-05-05 14:17 22.86269 40.21484 24496 ft 448 kts 40°
2026-05-05 14:17 22.88615 40.23737 24596 ft 454 kts 40°
2026-05-05 14:17 22.90992 40.26020 24724 ft 460 kts 40°
2026-05-05 14:18 22.93407 40.28341 24820 ft 466 kts 40°
2026-05-05 14:18 22.95848 40.30688 24906 ft 472 kts 40°
2026-05-05 14:18 22.98325 40.33071 25010 ft 477 kts 40°
2026-05-05 14:18 23.00823 40.35476 25119 ft 483 kts 40°
2026-05-05 14:19 23.03349 40.37909 25210 ft 488 kts 39°
2026-05-05 14:19 23.05905 40.40372 25290 ft 493 kts 40°
2026-05-05 14:19 23.08453 40.42829 25404 ft 498 kts 40°
2026-05-05 14:19 23.11058 40.45342 25510 ft 504 kts 39°
2026-05-05 14:20 23.13694 40.47886 25584 ft 509 kts 39°
2026-05-05 14:20 23.16356 40.50456 25694 ft 514 kts 39°
2026-05-05 14:20 23.19037 40.53047 25783 ft 518 kts 39°
2026-05-05 14:20 23.21747 40.55668 25881 ft 523 kts 39°
2026-05-05 14:21 23.24453 40.58349 25962 ft 528 kts 43°
2026-05-05 14:21 23.26880 40.61393 26032 ft 535 kts 53°
2026-05-05 14:21 23.28818 40.64856 26127 ft 539 kts 64°
2026-05-05 14:21 23.30326 40.68552 26278 ft 542 kts 68°
2026-05-05 14:22 23.31724 40.72373 26483 ft 543 kts 70°
2026-05-05 14:22 23.33056 40.76232 26647 ft 545 kts 70°
2026-05-05 14:22 23.34369 40.80122 26835 ft 547 kts 71°
2026-05-05 14:22 23.35683 40.84022 27004 ft 549 kts 70°
2026-05-05 14:23 23.37008 40.87931 27194 ft 552 kts 70°
2026-05-05 14:23 23.38349 40.91852 27356 ft 553 kts 70°
2026-05-05 14:23 23.39698 40.95774 27580 ft 554 kts 70°
2026-05-05 14:23 23.41059 40.99717 27739 ft 557 kts 70°
2026-05-05 14:24 23.42408 41.03620 27855 ft 559 kts 70°
2026-05-05 14:24 23.43781 41.07591 28044 ft 561 kts 70°
2026-05-05 14:24 23.45159 41.11581 28210 ft 563 kts 70°
2026-05-05 14:24 23.46539 41.15584 28361 ft 564 kts 70°
2026-05-05 14:25 23.47921 41.19597 28574 ft 565 kts 70°
2026-05-05 14:25 23.49300 41.23606 28696 ft 567 kts 70°
2026-05-05 14:25 23.50686 41.27640 28853 ft 569 kts 70°
2026-05-05 14:25 23.52074 41.31683 28981 ft 570 kts 70°
2026-05-05 14:26 23.53462 41.35732 29176 ft 571 kts 70°
2026-05-05 14:26 23.54854 41.39796 29329 ft 572 kts 70°
2026-05-05 14:26 23.56247 41.43865 29529 ft 572 kts 70°
2026-05-05 14:26 23.57623 41.47893 29737 ft 573 kts 70°
2026-05-05 14:27 23.59014 41.51967 29927 ft 573 kts 70°
2026-05-05 14:27 23.60403 41.56041 30112 ft 573 kts 70°
2026-05-05 14:27 23.61790 41.60109 30345 ft 571 kts 70°
2026-05-05 14:27 23.63176 41.64179 30555 ft 571 kts 70°
2026-05-05 14:28 23.64559 41.68247 30729 ft 571 kts 70°
2026-05-05 14:28 23.65924 41.72266 30842 ft 572 kts 70°
2026-05-05 14:28 23.68665 41.80430 30839 ft 572 kts 71°
2026-05-05 14:29 23.71273 41.88648 30846 ft 572 kts 72°
2026-05-05 14:29 23.73833 41.96815 30848 ft 572 kts 72°
2026-05-05 14:30 23.76476 42.04984 30851 ft 570 kts 70°
2026-05-05 14:30 23.79275 42.13090 30856 ft 570 kts 70°
2026-05-05 14:31 23.82087 42.21201 30849 ft 570 kts 70°
2026-05-05 14:31 23.84859 42.29296 30856 ft 568 kts 70°
2026-05-05 14:32 23.87593 42.37340 30868 ft 568 kts 70°
2026-05-05 14:32 23.90332 42.45427 30868 ft 568 kts 70°
2026-05-05 14:33 23.93078 42.53546 30876 ft 568 kts 70°
2026-05-05 14:33 23.95822 42.61668 30866 ft 568 kts 70°
2026-05-05 14:34 23.98556 42.69779 30878 ft 568 kts 70°
2026-05-05 14:34 24.01284 42.77887 30886 ft 568 kts 70°
2026-05-05 14:35 24.03993 42.85955 30885 ft 569 kts 70°
2026-05-05 14:35 24.06709 42.94082 30881 ft 568 kts 70°
2026-05-05 14:36 24.09386 43.02227 30889 ft 569 kts 71°
2026-05-05 14:36 24.12054 43.10381 30889 ft 568 kts 70°
2026-05-05 14:37 24.14728 43.18545 30892 ft 570 kts 71°
2026-05-05 14:37 24.17403 43.26721 30891 ft 570 kts 70°
2026-05-05 14:38 24.20054 43.34836 30901 ft 569 kts 70°
2026-05-05 14:38 24.22719 43.43011 30902 ft 569 kts 71°
2026-05-05 14:39 24.25379 43.51188 30896 ft 570 kts 70°
2026-05-05 14:39 24.28038 43.59382 30898 ft 570 kts 71°
2026-05-05 14:40 24.30692 43.67573 30885 ft 570 kts 70°
2026-05-05 14:40 24.33338 43.75758 30894 ft 569 kts 70°
2026-05-05 14:41 24.35966 43.83901 30888 ft 570 kts 71°
2026-05-05 14:41 24.38610 43.92113 30892 ft 570 kts 71°
2026-05-05 14:42 24.41249 44.00328 30895 ft 570 kts 71°
2026-05-05 14:42 24.43882 44.08540 30939 ft 569 kts 71°
2026-05-05 14:43 24.45833 44.16871 30474 ft 562 kts 79°
2026-05-05 14:43 24.46615 44.21080 29722 ft 563 kts 80°
2026-05-05 14:43 24.47352 44.25286 29127 ft 557 kts 80°
2026-05-05 14:44 24.48060 44.29439 28633 ft 550 kts 81°
2026-05-05 14:44 24.48759 44.33556 28097 ft 545 kts 81°
2026-05-05 14:44 24.49451 44.37624 27577 ft 539 kts 81°
2026-05-05 14:44 24.50138 44.41646 27085 ft 533 kts 81°
2026-05-05 14:45 24.50820 44.45619 26655 ft 525 kts 81°
2026-05-05 14:45 24.51494 44.49536 26190 ft 519 kts 81°
2026-05-05 14:45 24.52160 44.53404 25703 ft 514 kts 81°
2026-05-05 14:45 24.52812 44.57246 25180 ft 510 kts 81°
2026-05-05 14:46 24.53458 44.61054 24704 ft 504 kts 81°
2026-05-05 14:46 24.54097 44.64813 24288 ft 497 kts 81°
2026-05-05 14:46 24.54730 44.68529 23840 ft 492 kts 81°
2026-05-05 14:46 24.55355 44.72194 23354 ft 487 kts 81°
2026-05-05 14:47 24.55974 44.75830 22801 ft 482 kts 81°
2026-05-05 14:47 24.56588 44.79433 22206 ft 477 kts 81°
2026-05-05 14:47 24.57194 44.83002 21641 ft 473 kts 81°
2026-05-05 14:47 24.57795 44.86537 21091 ft 469 kts 81°
2026-05-05 14:48 24.58381 44.89992 20557 ft 464 kts 81°
2026-05-05 14:48 24.58968 44.93461 20035 ft 459 kts 81°
2026-05-05 14:48 24.59550 44.96894 19474 ft 456 kts 81°
2026-05-05 14:48 24.60127 45.00309 18923 ft 452 kts 81°
2026-05-05 14:49 24.60694 45.03680 18474 ft 446 kts 81°
2026-05-05 14:49 24.61256 45.07022 17915 ft 442 kts 81°
2026-05-05 14:49 24.61811 45.10332 17307 ft 439 kts 81°
2026-05-05 14:49 24.62362 45.13621 16685 ft 436 kts 81°
2026-05-05 14:50 24.62907 45.16878 16162 ft 431 kts 81°
2026-05-05 14:50 24.63445 45.20100 15618 ft 427 kts 81°
2026-05-05 14:50 24.63981 45.23303 14978 ft 425 kts 81°
2026-05-05 14:50 24.64514 45.26494 14401 ft 423 kts 81°
2026-05-05 14:51 24.65041 45.29653 14023 ft 419 kts 81°
2026-05-05 14:51 24.65565 45.32798 13977 ft 419 kts 81°
2026-05-05 14:51 24.66089 45.35948 14021 ft 420 kts 81°
2026-05-05 14:51 24.66614 45.39103 14023 ft 419 kts 81°
2026-05-05 14:52 24.67138 45.42258 14028 ft 420 kts 81°
2026-05-05 14:52 24.67653 45.45365 14024 ft 405 kts 82°
2026-05-05 14:52 24.68145 45.48338 14019 ft 386 kts 82°
2026-05-05 14:52 24.68611 45.51166 14010 ft 365 kts 82°
2026-05-05 14:53 24.69049 45.53828 14022 ft 345 kts 82°
2026-05-05 14:53 24.69466 45.56384 14020 ft 338 kts 82°
2026-05-05 14:53 24.69881 45.58928 14021 ft 336 kts 82°
2026-05-05 14:53 24.70285 45.61402 14023 ft 331 kts 82°
2026-05-05 14:54 24.70693 45.63891 14023 ft 330 kts 82°
2026-05-05 14:54 24.71097 45.66369 13985 ft 329 kts 83°
2026-05-05 14:54 24.71355 45.68835 13647 ft 323 kts 89°
2026-05-05 14:54 24.71458 45.71302 13153 ft 322 kts 91°
2026-05-05 14:55 24.71529 45.73760 12706 ft 321 kts 91°
2026-05-05 14:55 24.71599 45.76204 12284 ft 319 kts 90°
2026-05-05 14:55 24.71681 45.78634 11814 ft 318 kts 90°
2026-05-05 14:55 24.71768 45.81080 11301 ft 322 kts 90°
2026-05-05 14:56 24.71853 45.83548 11066 ft 324 kts 90°
2026-05-05 14:56 24.71934 45.86033 11021 ft 325 kts 90°
2026-05-05 14:56 24.71988 45.87682 11017 ft 325 kts 90°
2026-05-05 14:56 24.72094 45.91004 11019 ft 325 kts 90°
2026-05-05 14:57 24.72148 45.92681 11017 ft 324 kts 90°
2026-05-05 14:57 24.72225 45.95124 11020 ft 325 kts 90°
2026-05-05 14:57 24.72302 45.97607 11020 ft 324 kts 90°
2026-05-05 14:57 24.72378 46.00083 11021 ft 324 kts 90°
2026-05-05 14:58 24.72451 46.02560 11014 ft 323 kts 89°
2026-05-05 14:58 24.72525 46.05014 11013 ft 320 kts 89°
2026-05-05 14:58 24.72599 46.07459 11013 ft 320 kts 89°
2026-05-05 14:58 24.72672 46.09898 11014 ft 319 kts 89°
2026-05-05 14:59 24.72742 46.12339 11016 ft 319 kts 89°
2026-05-05 14:59 24.72814 46.14781 11015 ft 319 kts 89°
2026-05-05 14:59 24.72886 46.17224 11014 ft 320 kts 89°
2026-05-05 14:59 24.72955 46.19672 11018 ft 320 kts 89°
2026-05-05 15:00 24.73026 46.22121 11023 ft 321 kts 89°
2026-05-05 15:00 24.73072 46.23779 11021 ft 322 kts 89°
2026-05-05 15:00 24.73163 46.27036 10928 ft 320 kts 89°
2026-05-05 15:00 24.73234 46.29466 10503 ft 318 kts 89°
2026-05-05 15:01 24.73305 46.31903 10028 ft 319 kts 89°
2026-05-05 15:01 24.73372 46.34328 9618 ft 316 kts 88°
2026-05-05 15:01 24.73441 46.36736 9177 ft 314 kts 88°
2026-05-05 15:01 24.73551 46.39135 8635 ft 316 kts 84°
2026-05-05 15:02 24.74208 46.41431 8172 ft 315 kts 64°
2026-05-05 15:02 24.75261 46.43503 8014 ft 303 kts 60°
2026-05-05 15:02 24.76305 46.45442 8001 ft 286 kts 60°
2026-05-05 15:02 24.77300 46.47298 7999 ft 279 kts 60°
2026-05-05 15:03 24.78283 46.49141 8001 ft 279 kts 60°
2026-05-05 15:03 24.79258 46.50981 7994 ft 279 kts 60°
2026-05-05 15:03 24.80237 46.52830 7996 ft 279 kts 60°
2026-05-05 15:03 24.81210 46.54677 7998 ft 279 kts 60°
2026-05-05 15:04 24.82182 46.56530 7998 ft 280 kts 60°
2026-05-05 15:04 24.83151 46.58385 7995 ft 281 kts 62°
2026-05-05 15:04 24.83811 46.60391 7990 ft 278 kts 85°
2026-05-05 15:04 24.83604 46.62454 7757 ft 269 kts 115°
2026-05-05 15:05 24.81007 46.65151 7044 ft 259 kts 153°
2026-05-05 15:05 24.79426 46.66118 7001 ft 261 kts 154°
2026-05-05 15:05 24.77836 46.67087 6993 ft 261 kts 153°
2026-05-05 15:06 24.76251 46.68064 6992 ft 261 kts 153°
2026-05-05 15:06 24.74670 46.69048 6996 ft 261 kts 153°
2026-05-05 15:06 24.73096 46.70040 6996 ft 260 kts 153°
2026-05-05 15:06 24.71528 46.71025 7006 ft 259 kts 153°
2026-05-05 15:07 24.69962 46.72008 7002 ft 259 kts 153°
2026-05-05 15:07 24.68400 46.72991 7003 ft 258 kts 153°
2026-05-05 15:07 24.66840 46.73973 6999 ft 258 kts 153°
2026-05-05 15:07 24.65281 46.74953 6998 ft 259 kts 153°
2026-05-05 15:08 24.63719 46.75937 6993 ft 258 kts 153°
2026-05-05 15:08 24.62159 46.76913 6989 ft 258 kts 154°
2026-05-05 15:08 24.60600 46.77887 6988 ft 257 kts 154°
2026-05-05 15:08 24.59042 46.78860 6988 ft 258 kts 153°
2026-05-05 15:09 24.57483 46.79834 6988 ft 258 kts 153°
2026-05-05 15:09 24.55922 46.80811 6991 ft 259 kts 153°
2026-05-05 15:09 24.54358 46.81792 6985 ft 259 kts 153°
2026-05-05 15:09 24.52846 46.82869 6972 ft 256 kts 143°
2026-05-05 15:10 24.51706 46.84286 6965 ft 242 kts 124°
2026-05-05 15:10 24.51165 46.85996 6983 ft 240 kts 97°
2026-05-05 15:10 24.51305 46.87802 6979 ft 235 kts 76°
2026-05-05 15:10 24.51959 46.89418 7009 ft 231 kts 59°
2026-05-05 15:11 24.53016 46.90749 6997 ft 232 kts 41°
2026-05-05 15:11 24.54373 46.91650 6975 ft 225 kts 17°
2026-05-05 15:11 24.55895 46.91848 6981 ft 219 kts 355°
2026-05-05 15:11 24.57389 46.91605 6983 ft 216 kts 344°
2026-05-05 15:12 24.58819 46.91113 6981 ft 215 kts 336°
2026-05-05 15:12 24.60196 46.90480 6988 ft 214 kts 333°
2026-05-05 15:12 24.61538 46.89766 6988 ft 214 kts 329°
2026-05-05 15:12 24.62854 46.88999 6987 ft 214 kts 328°
2026-05-05 15:13 24.64158 46.88210 6986 ft 214 kts 327°
2026-05-05 15:13 24.65456 46.87406 6988 ft 214 kts 327°
2026-05-05 15:13 24.66754 46.86597 6996 ft 214 kts 326°
2026-05-05 15:13 24.68052 46.85787 6998 ft 214 kts 326°
2026-05-05 15:14 24.69350 46.84980 6996 ft 215 kts 327°
2026-05-05 15:14 24.70725 46.84323 7001 ft 216 kts 336°
2026-05-05 15:14 24.72153 46.83790 7002 ft 217 kts 338°
2026-05-05 15:14 24.73583 46.83283 7004 ft 216 kts 339°
2026-05-05 15:15 24.74998 46.82786 7006 ft 216 kts 339°
2026-05-05 15:15 24.76432 46.82281 7005 ft 217 kts 338°
2026-05-05 15:15 24.77871 46.81769 6761 ft 213 kts 338°
2026-05-05 15:15 24.79257 46.81263 6311 ft 213 kts 338°
2026-05-05 15:16 24.80640 46.80722 5825 ft 210 kts 338°
2026-05-05 15:16 24.81981 46.80110 5317 ft 208 kts 329°
2026-05-05 15:16 24.83235 46.79307 4817 ft 209 kts 326°
2026-05-05 15:16 24.84503 46.78520 4352 ft 208 kts 328°
2026-05-05 15:17 24.85783 46.77745 3951 ft 205 kts 327°
2026-05-05 15:17 24.86990 46.76977 3687 ft 202 kts 327°
2026-05-05 15:17 24.88161 46.76203 3377 ft 199 kts 327°
2026-05-05 15:17 24.89319 46.75448 3097 ft 187 kts 329°
2026-05-05 15:18 24.90411 46.74785 2898 ft 172 kts 331°
2026-05-05 15:18 24.91438 46.74203 2689 ft 161 kts 333°
2026-05-05 15:18 24.92390 46.73587 2502 ft 158 kts 326°
2026-05-05 15:18 24.93330 46.72952 2359 ft 159 kts 329°
2026-05-05 15:19 24.94289 46.72342 2190 ft 159 kts 330°
2026-05-05 15:19 24.95250 46.71746 2049 ft 155 kts 330°
2026-05-05 15:19 24.96005 46.71260 2047 ft 86 kts 330°
2026-05-05 15:19 24.96327 46.71056 2044 ft 42 kts 330°
2026-05-05 15:20 24.96512 46.70858 2047 ft 20 kts 298°
2026-05-05 15:20 24.96519 46.70838 2043 ft 5 kts 288°
2026-05-05 15:20 24.96536 46.70756 2048 ft 12 kts 266°
2026-05-05 15:20 24.96515 46.70684 2054 ft 9 kts 247°
2026-05-05 15:21 24.96487 46.70630 2054 ft 8 kts 238°
2026-05-05 15:21 24.96442 46.70546 2056 ft 25 kts 239°
2026-05-05 15:21 24.96374 46.70413 2049 ft 9 kts 231°
2026-05-05 15:21 24.96287 46.70410 2054 ft 14 kts 138°
2026-05-05 15:22 24.96206 46.70479 2056 ft 15 kts 149°
2026-05-05 15:22 24.96115 46.70538 2053 ft 16 kts 150°
2026-05-05 15:22 24.96021 46.70594 2055 ft 10 kts 163°
2026-05-05 15:22 24.95982 46.70572 2055 ft 6 kts 225°
2026-05-05 15:23 24.95951 46.70531 2055 ft 7 kts 233°
2026-05-05 15:23 24.95949 46.70528 2055 ft 0 kts 233°